Location: Bijele Vode
(45.2833°N, 16.2000°E)
Time: 21:02:56
(UTC+00:00)

OBJECT-B - Pass Details

Date: 18 September 2020
Orbit: 421 x 433 km, 97.0° (Epoch: 09 October)

Event Time Altitude Azimuth Distance (km) Brightness Sun altitude
Exits shadow 19:01:25 51° 358° (N) 541 1.4 -21.5°
Drops below altitude 10° 19:03:57 10° 350° (N) 1,520 4.0 -21.9°
Sets 19:05:58 0° 349° (N) 2,393 5.1 -22.2°
